This is the latest recevied weather packets stored in our database for station/object dl1wer-13. If no packets are shown the sender has not sent any weather packets the latest 10 day(s).
| Time | Temp. | Humidity | Pressure | Rain* | Wind** | Luminosity | Snow |
|---|---|---|---|---|---|---|---|
| 1777386617 | 19.44° C | 26% | 1041.8 hPa | 0 mm | - | - | - |
| 1777386016 | 19.44° C | 28% | 1041.5 hPa | 0 mm | - | - | - |
| 1777385416 | 20° C | 30% | 1041.9 hPa | 0 mm | - | - | - |
| 1777384816 | 20° C | 30% | 1042.1 hPa | 0 mm | - | - | - |
| 1777384216 | 19.44° C | 30% | 1042.2 hPa | 0 mm | - | - | - |
| 1777383616 | 19.44° C | 31% | 1042 hPa | 0 mm | - | - | - |
| 1777383016 | 19.44° C | 31% | 1042.5 hPa | 0 mm | - | - | - |
| 1777382416 | 18.89° C | 32% | 1042.5 hPa | 0 mm | - | - | - |
| 1777381815 | 19.44° C | 32% | 1042.4 hPa | 0 mm | - | - | - |
| 1777381217 | 18.89° C | 32% | 1042.5 hPa | 0 mm | - | - | - |
| 1777380617 | 18.89° C | 32% | 1042.5 hPa | 0 mm | - | - | - |
| 1777380015 | 18.89° C | 33% | 1042.6 hPa | 0 mm | - | - | - |
| 1777379416 | 18.89° C | 33% | 1042.7 hPa | 0 mm | - | - | - |
| 1777378821 | 18.33° C | 34% | 1042.5 hPa | 0 mm | - | - | - |
| 1777378216 | 18.89° C | 33% | 1042.7 hPa | 0 mm | - | - | - |
| 1777377616 | 18.89° C | 34% | 1042.8 hPa | 0 mm | - | - | - |
| 1777377016 | 18.33° C | 34% | 1042.7 hPa | 0 mm | - | - | - |
| 1777376416 | 18.33° C | 35% | 1042.8 hPa | 0 mm | - | - | - |
| 1777375816 | 18.33° C | 32% | 1042.7 hPa | 0 mm | - | - | - |
| 1777375216 | 17.78° C | 34% | 1043 hPa | 0 mm | - | - | - |
| 1777374616 | 17.78° C | 33% | 1042.9 hPa | 0 mm | - | - | - |
| 1777374016 | 17.78° C | 35% | 1043 hPa | 0 mm | - | - | - |
| 1777373416 | 17.78° C | 35% | 1043.1 hPa | 0 mm | - | - | - |
| 1777372816 | 17.78° C | 34% | 1043 hPa | 0 mm | - | - | - |
| 1777372216 | 17.22° C | 40% | 1043.1 hPa | 0 mm | - | - | - |
* Rain latest hour (hover to see other rain measurements)
** Current wind speed in m/s (hover to see current wind gust speed)